Greenwood, SC

10:40 PM EDT on October 16, 2017 (GMT -0400)
Greenwood County

Weather History for KGRD - January, 2014

Change the Weather History Date:

Monday, January 6, 2014

  Actual Average (KAND) Record (KAND)
Temperature  
Mean Temperature 35 °F -  
Max Temperature 54 °F 50 °F 73 °F (1950)
Min Temperature 14 °F 34 °F 12 °F (2014)
Degree Days  
Heating Degree Days 30    
Moisture  
Dew Point 29 °F    
Average Humidity 70    
Maximum Humidity 100    
Minimum Humidity 32    
Precipitation  
Precipitation 0.06 in - - ()
Sea Level Pressure  
Sea Level Pressure 29.92 in    
Wind  
Wind Speed 13 mph (WSW)    
Max Wind Speed 18 mph    
Max Gust Speed 38 mph    
Visibility 8 miles    
Events Rain    
Averages and records for this station are not official NWS values.
T = Trace of Precipitation, MM = Missing Value Source: NWS Daily Summary

Daily Weather History Graph

Daily Weather History Graph

Search for Another Location

Airport or City:

Trip Planner

Search our weather history database for the weather conditions in past years. The results will help you decide how hot, cold, wet, or windy it might be!

Date:

Astronomy

Jan. 06, 2014 Rise Set
Actual Time 7:35 AM EST 5:33 PM EST
Civil Twilight 7:07 AM EST 6:01 PM EST
Nautical Twilight 6:36 AM EST 6:32 PM EST
Astronomical Twilight 6:06 AM EST 7:03 PM EST
Moon 11:06 AM EST (1/6) 11:47 PM EST (1/6)
Length of Visible Light 10h 53m
Length of Day
9h 58m
Waxing Crescent, 34% of the Moon is Illuminated
Jan 6
Waxing Crescent
Jan 7
First Quarter
Jan 15
Full
Jan 24
Last Quarter
Jan 30
New

Hourly Weather History & Observations

Time (EST) Temp. Windchill Dew Point Humidity Pressure Visibility Wind Dir Wind Speed Gust Speed Precip Events Conditions
12:03 AM 44.6 °F 39.2 °F 42.8 °F 93% 29.78 in 1.5 mi South 10.4 mph - N/A   Overcast
12:19 AM 44.6 °F 39.2 °F 44.6 °F 100% 29.77 in 0.8 mi South 10.4 mph - N/A   Overcast
12:56 AM 50.0 °F - 48.0 °F 93% 29.75 in 1.0 mi South 13.8 mph 20.7 mph N/A   Overcast
1:16 AM 50.0 °F - 48.2 °F 94% 29.74 in 0.8 mi SSW 13.8 mph 19.6 mph N/A   Overcast
1:52 AM 51.8 °F - 50.0 °F 94% 29.73 in 1.0 mi South 9.2 mph - N/A   Overcast
1:56 AM 51.1 °F - 50.0 °F 96% 29.74 in 1.0 mi SSW 12.7 mph - N/A   Overcast
2:28 AM 51.8 °F - 51.8 °F 100% 29.73 in 3.0 mi SSW 10.4 mph - 0.02 in Rain Light Rain
2:51 AM 53.6 °F - 51.8 °F 94% 29.73 in 5.0 mi SSW 11.5 mph 23.0 mph 0.03 in Rain Light Rain
2:56 AM 54.0 °F - 52.0 °F 93% 29.73 in 6.0 mi SSW 12.7 mph 19.6 mph 0.03 in Rain Light Rain
3:20 AM 51.8 °F - 48.2 °F 88% 29.75 in 8.0 mi West 15.0 mph 24.2 mph 0.02 in Rain Light Rain
3:30 AM 50.0 °F - 46.4 °F 87% 29.76 in 10.0 mi West 13.8 mph 23.0 mph 0.02 in   Overcast
3:43 AM 48.2 °F - 46.4 °F 93% 29.76 in 10.0 mi West 12.7 mph 19.6 mph 0.02 in   Overcast
3:56 AM 48.0 °F - 44.1 °F 86% 29.76 in 10.0 mi West 11.5 mph 21.9 mph 0.02 in   Overcast
4:17 AM 48.2 °F - 44.6 °F 87% 29.76 in 10.0 mi West 12.7 mph 18.4 mph N/A   Overcast
4:56 AM 46.9 °F - 43.0 °F 86% 29.76 in 10.0 mi WSW 9.2 mph 18.4 mph 0.00 in   Overcast
5:48 AM 46.4 °F 40.7 °F 41.0 °F 81% 29.78 in 10.0 mi WSW 12.7 mph 21.9 mph 0.01 in Rain Light Rain
5:56 AM 45.0 °F 38.9 °F 41.0 °F 86% 29.79 in 10.0 mi WSW 12.7 mph 21.9 mph 0.01 in Rain Light Rain
6:14 AM 44.6 °F 37.8 °F 39.2 °F 81% 29.79 in 10.0 mi WSW 15.0 mph - 0.00 in   Overcast
6:56 AM 41.0 °F 32.2 °F 36.0 °F 82% 29.82 in 10.0 mi West 18.4 mph 29.9 mph 0.00 in   Mostly Cloudy
7:20 AM 39.2 °F 30.5 °F 33.8 °F 81% 29.83 in 10.0 mi WSW 16.1 mph 26.5 mph N/A   Partly Cloudy
7:56 AM 37.0 °F 28.5 °F 30.9 °F 79% 29.88 in 10.0 mi West 13.8 mph 24.2 mph N/A   Partly Cloudy
8:56 AM 35.1 °F 25.9 °F 27.0 °F 72% 29.94 in 10.0 mi West 13.8 mph 20.7 mph N/A   Clear
9:56 AM 35.1 °F 27.4 °F 25.0 °F 67% 29.98 in 10.0 mi West 10.4 mph 26.5 mph N/A   Clear
10:56 AM 36.0 °F 28.0 °F 23.0 °F 59% 30.00 in 10.0 mi West 11.5 mph 25.3 mph N/A   Clear
11:56 AM 39.0 °F 31.0 °F 19.9 °F 46% 30.00 in 10.0 mi West 13.8 mph 21.9 mph N/A   Clear
12:56 PM 39.0 °F 30.6 °F 18.0 °F 43% 30.00 in 10.0 mi WNW 15.0 mph 25.3 mph N/A   Clear
1:56 PM 39.0 °F 30.3 °F 14.0 °F 36% 30.01 in 10.0 mi West 16.1 mph 32.2 mph N/A   Clear
2:56 PM 37.0 °F 28.9 °F 10.0 °F 33% 30.04 in 10.0 mi WNW 12.7 mph 27.6 mph N/A   Clear
3:56 PM 34.0 °F 23.4 °F 7.0 °F 32% 30.06 in 10.0 mi West 17.3 mph 35.7 mph N/A   Clear
4:56 PM 30.9 °F 19.1 °F 8.1 °F 38% 30.10 in 10.0 mi West 18.4 mph 27.6 mph N/A   Partly Cloudy
5:56 PM 26.1 °F 13.1 °F 3.9 °F 39% 30.15 in 10.0 mi West 17.3 mph 38.0 mph N/A   Clear
6:56 PM 21.9 °F 10.4 °F -2.0 °F 35% 30.21 in 10.0 mi West 11.5 mph 27.6 mph N/A   Clear
7:56 PM 19.9 °F 4.8 °F -2.0 °F 38% 30.26 in 10.0 mi West 18.4 mph 28.8 mph N/A   Clear
8:56 PM 18.0 °F 3.6 °F -4.0 °F 38% 30.30 in 10.0 mi West 15.0 mph 25.3 mph N/A   Clear
9:56 PM 17.1 °F 4.3 °F -2.9 °F 41% 30.32 in 10.0 mi West 11.5 mph 26.5 mph N/A   Clear
10:56 PM 16.0 °F 6.3 °F -2.9 °F 43% 30.33 in 10.0 mi Variable 6.9 mph 23.0 mph N/A   Clear
11:56 PM 14.0 °F 1.2 °F -4.0 °F 45% 30.34 in 10.0 mi West 10.4 mph 18.4 mph N/A   Clear